Time,TemperatureF,DewpointF,PressureIn,WindDirection,WindDirectionDegrees,WindSpeedMPH,WindSpeedGustMPH,Humidity,HourlyPrecipIn,Conditions,Clouds,dailyrainin,SolarRadiationWatts/m^2,SoftwareType,DateUTC
2013-04-19 00:02:00,22.0,4.0,-100.00,SSW,196,10.0,25.0,46,0.00,,,0.04,1.000000,,2013-04-19 06:02:00,
2013-04-19 00:11:00,22.0,4.0,-100.00,SSW,196,10.0,25.0,46,0.00,,,0.04,1.000000,,2013-04-19 06:11:00,
2013-04-19 00:22:00,22.0,4.0,-100.00,SSW,196,10.0,25.0,46,0.00,,,0.04,1.000000,,2013-04-19 06:22:00,
2013-04-19 00:42:00,22.0,5.0,-100.00,SSW,212,14.0,29.0,48,0.00,,,0.04,1.000000,,2013-04-19 06:42:00,
2013-04-19 00:53:00,22.0,5.0,-100.00,SSW,212,14.0,29.0,48,0.00,,,0.04,1.000000,,2013-04-19 06:53:00,
2013-04-19 01:02:00,22.0,5.0,-100.00,SSW,212,14.0,29.0,48,0.00,,,0.04,1.000000,,2013-04-19 07:02:00,
2013-04-19 01:12:00,22.0,5.0,-100.00,SSW,212,14.0,29.0,48,0.00,,,0.04,1.000000,,2013-04-19 07:12:00,
2013-04-19 01:21:00,22.0,5.0,-100.00,SSW,212,14.0,29.0,48,0.00,,,0.04,1.000000,,2013-04-19 07:21:00,
2013-04-19 01:42:00,21.0,5.0,-100.00,SSW,195,11.0,31.0,49,0.00,,,0.04,1.000000,,2013-04-19 07:42:00,
2013-04-19 01:52:00,21.0,5.0,-100.00,SSW,195,11.0,31.0,49,0.00,,,0.04,1.000000,,2013-04-19 07:52:00,
2013-04-19 02:02:00,21.0,5.0,-100.00,SSW,195,11.0,31.0,49,0.00,,,0.04,1.000000,,2013-04-19 08:02:00,
2013-04-19 02:12:00,21.0,5.0,-100.00,SSW,195,11.0,31.0,49,0.00,,,0.04,1.000000,,2013-04-19 08:12:00,
2013-04-19 02:21:00,21.0,5.0,-100.00,SSW,195,11.0,31.0,49,0.00,,,0.04,1.000000,,2013-04-19 08:21:00,
2013-04-19 02:42:00,22.0,5.0,-100.00,SSW,195,12.0,27.0,48,0.00,,,0.04,1.000000,,2013-04-19 08:42:00,
2013-04-19 02:52:00,22.0,5.0,-100.00,SSW,195,12.0,27.0,48,0.00,,,0.04,1.000000,,2013-04-19 08:52:00,
2013-04-19 03:01:00,22.0,5.0,-100.00,SSW,195,12.0,27.0,48,0.00,,,0.04,1.000000,,2013-04-19 09:01:00,
2013-04-19 03:11:00,22.0,5.0,-100.00,SSW,195,12.0,27.0,48,0.00,,,0.04,1.000000,,2013-04-19 09:11:00,
2013-04-19 03:21:00,22.0,5.0,-100.00,SSW,195,12.0,27.0,48,0.00,,,0.04,1.000000,,2013-04-19 09:21:00,
2013-04-19 03:43:00,22.0,7.0,-100.00,SW,220,12.0,24.0,51,0.00,,,-99.99,1.000000,,2013-04-19 09:43:00,
2013-04-19 03:52:00,22.0,7.0,-100.00,SW,220,12.0,24.0,51,0.00,,,-99.99,1.000000,,2013-04-19 09:52:00,
2013-04-19 04:02:00,22.0,7.0,-100.00,SW,220,12.0,24.0,51,0.00,,,-99.99,1.000000,,2013-04-19 10:02:00,
2013-04-19 04:13:00,22.0,7.0,-100.00,SW,220,12.0,24.0,51,0.00,,,-99.99,1.000000,,2013-04-19 10:13:00,
2013-04-19 04:23:00,22.0,7.0,-100.00,SW,220,12.0,24.0,51,0.00,,,-99.99,1.000000,,2013-04-19 10:23:00,
2013-04-19 04:42:00,22.0,8.0,-100.00,SW,226,14.0,32.0,54,0.00,,,0.04,1.000000,,2013-04-19 10:42:00,
2013-04-19 04:52:00,22.0,8.0,-100.00,SW,226,14.0,32.0,54,0.00,,,0.04,1.000000,,2013-04-19 10:52:00,
2013-04-19 05:03:00,22.0,8.0,-100.00,SW,226,14.0,32.0,54,0.00,,,0.04,1.000000,,2013-04-19 11:03:00,
2013-04-19 05:11:00,22.0,8.0,-100.00,SW,226,14.0,32.0,54,0.00,,,0.04,1.000000,,2013-04-19 11:11:00,
2013-04-19 05:22:00,22.0,8.0,-100.00,SW,226,14.0,32.0,54,0.00,,,0.04,1.000000,,2013-04-19 11:22:00,
2013-04-19 05:43:00,22.0,8.0,-100.00,SW,234,12.0,27.0,54,0.00,,,0.04,1.000000,,2013-04-19 11:43:00,
2013-04-19 05:52:00,22.0,8.0,-100.00,SW,234,12.0,27.0,54,0.00,,,0.04,1.000000,,2013-04-19 11:52:00,
2013-04-19 06:03:00,22.0,8.0,-100.00,SW,234,12.0,27.0,54,0.00,,,0.04,1.000000,,2013-04-19 12:03:00,
2013-04-19 06:12:00,22.0,8.0,-100.00,SW,234,12.0,27.0,54,0.00,,,0.04,1.000000,,2013-04-19 12:12:00,
2013-04-19 06:22:00,22.0,8.0,-100.00,SW,234,12.0,27.0,54,0.00,,,0.04,1.000000,,2013-04-19 12:22:00,
2013-04-19 06:42:00,22.0,10.0,-100.00,WSW,244,17.0,30.0,58,0.00,,,0.04,1.000000,,2013-04-19 12:42:00,
2013-04-19 06:53:00,22.0,10.0,-100.00,WSW,244,17.0,30.0,58,0.00,,,0.04,1.000000,,2013-04-19 12:53:00,
2013-04-19 07:01:00,22.0,10.0,-100.00,WSW,244,17.0,30.0,58,0.00,,,0.04,1.000000,,2013-04-19 13:01:00,
2013-04-19 07:11:00,22.0,10.0,-100.00,WSW,244,17.0,30.0,58,0.00,,,0.04,1.000000,,2013-04-19 13:11:00,
2013-04-19 07:21:00,22.0,10.0,-100.00,WSW,244,17.0,30.0,58,0.00,,,0.04,1.000000,,2013-04-19 13:21:00,
2013-04-19 07:42:00,24.0,10.0,-100.00,WSW,247,14.0,29.0,54,0.00,,,0.04,30.000000,,2013-04-19 13:42:00,
2013-04-19 07:52:00,24.0,10.0,-100.00,WSW,247,14.0,29.0,54,0.00,,,0.04,30.000000,,2013-04-19 13:52:00,
2013-04-19 08:02:00,24.0,10.0,-100.00,WSW,247,14.0,29.0,54,0.00,,,0.04,30.000000,,2013-04-19 14:02:00,
2013-04-19 08:11:00,24.0,10.0,-100.00,WSW,247,14.0,29.0,54,0.00,,,0.04,30.000000,,2013-04-19 14:11:00,
2013-04-19 08:22:00,24.0,10.0,-100.00,WSW,247,14.0,29.0,54,0.00,,,0.04,30.000000,,2013-04-19 14:22:00,
2013-04-19 08:43:00,29.0,10.0,-100.00,SW,223,9.0,29.0,45,0.00,,,0.04,204.000000,,2013-04-19 14:43:00,
2013-04-19 08:52:00,29.0,10.0,-100.00,SW,223,9.0,29.0,45,0.00,,,0.04,204.000000,,2013-04-19 14:52:00,
2013-04-19 09:02:00,29.0,10.0,-100.00,SW,223,9.0,29.0,45,0.00,,,0.04,204.000000,,2013-04-19 15:02:00,
2013-04-19 09:12:00,29.0,10.0,-100.00,SW,223,9.0,29.0,45,0.00,,,0.04,204.000000,,2013-04-19 15:12:00,
2013-04-19 09:21:00,29.0,10.0,-100.00,SW,223,9.0,29.0,45,0.00,,,0.04,204.000000,,2013-04-19 15:21:00,
2013-04-19 09:43:00,31.0,11.0,-100.00,SW,233,10.0,25.0,42,0.00,,,0.04,526.000000,,2013-04-19 15:43:00,
2013-04-19 09:52:00,31.0,11.0,-100.00,SW,233,10.0,25.0,42,0.00,,,0.04,526.000000,,2013-04-19 15:52:00,
2013-04-19 10:03:00,31.0,11.0,-100.00,SW,233,10.0,25.0,42,0.00,,,0.04,526.000000,,2013-04-19 16:03:00,
2013-04-19 10:13:00,31.0,11.0,-100.00,SW,233,10.0,25.0,42,0.00,,,0.04,526.000000,,2013-04-19 16:13:00,
2013-04-19 10:23:00,31.0,11.0,-100.00,SW,233,10.0,25.0,42,0.00,,,0.04,526.000000,,2013-04-19 16:23:00,
2013-04-19 10:43:00,30.0,11.0,-100.00,SSW,198,6.0,21.0,45,0.00,,,0.04,217.000000,,2013-04-19 16:43:00,
2013-04-19 10:53:00,30.0,11.0,-100.00,SSW,198,6.0,21.0,45,0.00,,,0.04,217.000000,,2013-04-19 16:53:00,
2013-04-19 11:02:00,30.0,11.0,-100.00,SSW,198,6.0,21.0,45,0.00,,,0.04,217.000000,,2013-04-19 17:02:00,
2013-04-19 11:12:00,30.0,11.0,-100.00,SSW,198,6.0,21.0,45,0.00,,,0.04,217.000000,,2013-04-19 17:12:00,
2013-04-19 11:21:00,30.0,11.0,-100.00,SSW,198,6.0,21.0,45,0.00,,,0.04,217.000000,,2013-04-19 17:21:00,
2013-04-19 11:43:00,35.0,14.0,-100.00,WSW,246,11.0,20.0,41,0.00,,,0.04,396.000000,,2013-04-19 17:43:00,
2013-04-19 11:52:00,35.0,14.0,-100.00,WSW,246,11.0,20.0,41,0.00,,,0.04,396.000000,,2013-04-19 17:52:00,
2013-04-19 12:02:00,35.0,14.0,-100.00,WSW,246,11.0,20.0,41,0.00,,,0.04,396.000000,,2013-04-19 18:02:00,
2013-04-19 12:13:00,35.0,14.0,-100.00,WSW,246,11.0,20.0,41,0.00,,,0.04,396.000000,,2013-04-19 18:13:00,
2013-04-19 12:22:00,35.0,14.0,-100.00,WSW,246,11.0,20.0,41,0.00,,,0.04,396.000000,,2013-04-19 18:22:00,
2013-04-19 12:43:00,40.0,16.0,-100.00,SW,235,9.0,18.0,37,0.02,,,0.06,1056.000000,,2013-04-19 18:43:00,
2013-04-19 12:52:00,40.0,16.0,-100.00,SW,235,9.0,18.0,37,0.02,,,0.06,1056.000000,,2013-04-19 18:52:00,
2013-04-19 13:02:00,40.0,16.0,-100.00,SW,235,9.0,18.0,37,0.02,,,0.06,1056.000000,,2013-04-19 19:02:00,
2013-04-19 13:11:00,40.0,16.0,-100.00,SW,235,9.0,18.0,37,0.02,,,0.06,1056.000000,,2013-04-19 19:11:00,
2013-04-19 13:21:00,40.0,16.0,-100.00,SW,235,9.0,18.0,37,0.02,,,0.06,1056.000000,,2013-04-19 19:21:00,
2013-04-19 13:42:00,38.0,16.0,-100.00,SW,233,13.0,24.0,41,0.05,,,0.11,1056.000000,,2013-04-19 19:42:00,
2013-04-19 13:52:00,38.0,16.0,-100.00,SW,233,13.0,24.0,41,0.05,,,0.11,1056.000000,,2013-04-19 19:52:00,
2013-04-19 14:02:00,38.0,16.0,-100.00,SW,233,13.0,24.0,41,0.05,,,0.11,1056.000000,,2013-04-19 20:02:00,
2013-04-19 14:11:00,38.0,16.0,-100.00,SW,233,13.0,24.0,41,0.05,,,0.11,1056.000000,,2013-04-19 20:11:00,
2013-04-19 14:22:00,38.0,16.0,-100.00,SW,233,13.0,24.0,41,0.05,,,0.11,1056.000000,,2013-04-19 20:22:00,
2013-04-19 14:42:00,38.0,17.0,-100.00,SW,227,10.0,24.0,42,0.04,,,0.14,954.000000,,2013-04-19 20:42:00,
2013-04-19 14:52:00,38.0,17.0,-100.00,SW,227,10.0,24.0,42,0.04,,,0.14,954.000000,,2013-04-19 20:52:00,
2013-04-19 15:01:00,38.0,17.0,-100.00,SW,227,10.0,24.0,42,0.04,,,0.14,954.000000,,2013-04-19 21:01:00,
2013-04-19 15:11:00,38.0,17.0,-100.00,SW,227,10.0,24.0,42,0.04,,,0.14,954.000000,,2013-04-19 21:11:00,
2013-04-19 15:21:00,38.0,17.0,-100.00,SW,227,10.0,24.0,42,0.04,,,0.14,954.000000,,2013-04-19 21:21:00,
2013-04-19 15:43:00,39.0,18.0,-100.00,WSW,248,15.0,25.0,42,0.00,,,0.12,1007.000000,,2013-04-19 21:43:00,
2013-04-19 15:53:00,39.0,18.0,-100.00,WSW,248,15.0,25.0,42,0.00,,,0.12,1007.000000,,2013-04-19 21:53:00,
2013-04-19 16:02:00,39.0,18.0,-100.00,WSW,248,15.0,25.0,42,0.00,,,0.12,1007.000000,,2013-04-19 22:02:00,
2013-04-19 16:12:00,39.0,18.0,-100.00,WSW,248,15.0,25.0,42,0.00,,,0.12,1007.000000,,2013-04-19 22:12:00,
2013-04-19 16:22:00,39.0,18.0,-100.00,WSW,248,15.0,25.0,42,0.00,,,0.12,1007.000000,,2013-04-19 22:22:00,
2013-04-19 16:42:00,38.0,20.0,-100.00,WSW,248,13.0,30.0,48,0.00,,,0.11,973.000000,,2013-04-19 22:42:00,
2013-04-19 16:52:00,38.0,20.0,-100.00,WSW,248,13.0,30.0,48,0.00,,,0.11,973.000000,,2013-04-19 22:52:00,
2013-04-19 17:03:00,38.0,20.0,-100.00,WSW,248,13.0,30.0,48,0.00,,,0.11,973.000000,,2013-04-19 23:03:00,
2013-04-19 17:11:00,38.0,20.0,-100.00,WSW,248,13.0,30.0,48,0.00,,,0.11,973.000000,,2013-04-19 23:11:00,
2013-04-19 17:22:00,38.0,20.0,-100.00,WSW,248,13.0,30.0,48,0.00,,,0.11,973.000000,,2013-04-19 23:22:00,
2013-04-19 17:42:00,36.0,19.0,-100.00,WSW,245,12.0,27.0,50,0.00,,,0.11,419.000000,,2013-04-19 23:42:00,
2013-04-19 17:52:00,36.0,19.0,-100.00,WSW,245,12.0,27.0,50,0.00,,,0.11,419.000000,,2013-04-19 23:52:00,
2013-04-19 18:02:00,36.0,19.0,-100.00,WSW,245,12.0,27.0,50,0.00,,,0.11,419.000000,,2013-04-20 00:02:00,
2013-04-19 18:12:00,36.0,19.0,-100.00,WSW,245,12.0,27.0,50,0.00,,,0.11,419.000000,,2013-04-20 00:12:00,
2013-04-19 18:21:00,36.0,19.0,-100.00,WSW,245,12.0,27.0,50,0.00,,,0.11,419.000000,,2013-04-20 00:21:00,
2013-04-19 18:42:00,36.0,18.0,-100.00,WSW,242,9.0,21.0,47,0.00,,,0.11,190.000000,,2013-04-20 00:42:00,
2013-04-19 18:52:00,36.0,18.0,-100.00,WSW,242,9.0,21.0,47,0.00,,,0.11,190.000000,,2013-04-20 00:52:00,
2013-04-19 19:01:00,36.0,18.0,-100.00,WSW,242,9.0,21.0,47,0.00,,,0.11,190.000000,,2013-04-20 01:01:00,
2013-04-19 19:11:00,36.0,18.0,-100.00,WSW,242,9.0,21.0,47,0.00,,,0.11,190.000000,,2013-04-20 01:11:00,
2013-04-19 19:21:00,36.0,18.0,-100.00,WSW,242,9.0,21.0,47,0.00,,,0.11,190.000000,,2013-04-20 01:21:00,
2013-04-19 19:42:00,35.0,20.0,-100.00,SW,231,12.0,26.0,53,0.00,,,0.11,126.000000,,2013-04-20 01:42:00,
2013-04-19 19:52:00,35.0,20.0,-100.00,SW,231,12.0,26.0,53,0.00,,,0.11,126.000000,,2013-04-20 01:52:00,
2013-04-19 20:01:00,35.0,20.0,-100.00,SW,231,12.0,26.0,53,0.00,,,0.11,126.000000,,2013-04-20 02:01:00,
2013-04-19 20:11:00,35.0,20.0,-100.00,SW,231,12.0,26.0,53,0.00,,,0.11,126.000000,,2013-04-20 02:11:00,
2013-04-19 20:21:00,35.0,20.0,-100.00,SW,231,12.0,26.0,53,0.00,,,0.11,126.000000,,2013-04-20 02:21:00,
2013-04-19 20:42:00,34.0,17.0,-100.00,WSW,254,10.0,24.0,50,0.00,,,0.11,11.000000,,2013-04-20 02:42:00,
2013-04-19 20:52:00,34.0,17.0,-100.00,WSW,254,10.0,24.0,50,0.00,,,0.11,11.000000,,2013-04-20 02:52:00,
2013-04-19 21:01:00,34.0,17.0,-100.00,WSW,254,10.0,24.0,50,0.00,,,0.11,11.000000,,2013-04-20 03:01:00,
2013-04-19 21:11:00,34.0,17.0,-100.00,WSW,254,10.0,24.0,50,0.00,,,0.11,11.000000,,2013-04-20 03:11:00,
2013-04-19 21:21:00,34.0,17.0,-100.00,WSW,254,10.0,24.0,50,0.00,,,0.11,11.000000,,2013-04-20 03:21:00,
2013-04-19 21:43:00,34.0,19.0,-100.00,West,259,10.0,18.0,54,0.00,,,0.11,1.000000,,2013-04-20 03:43:00,
2013-04-19 21:53:00,34.0,19.0,-100.00,West,259,10.0,18.0,54,0.00,,,0.11,1.000000,,2013-04-20 03:53:00,
2013-04-19 22:03:00,34.0,19.0,-100.00,West,259,10.0,18.0,54,0.00,,,0.11,1.000000,,2013-04-20 04:03:00,
2013-04-19 22:12:00,34.0,19.0,-100.00,West,259,10.0,18.0,54,0.00,,,0.11,1.000000,,2013-04-20 04:12:00,
2013-04-19 22:23:00,34.0,19.0,-100.00,West,259,10.0,18.0,54,0.00,,,0.11,1.000000,,2013-04-20 04:23:00,
2013-04-19 22:43:00,34.0,19.0,-100.00,WSW,240,9.0,28.0,53,0.00,,,0.11,1.000000,,2013-04-20 04:43:00,
2013-04-19 22:53:00,34.0,19.0,-100.00,WSW,240,9.0,28.0,53,0.00,,,0.11,1.000000,,2013-04-20 04:53:00,
2013-04-19 23:02:00,34.0,19.0,-100.00,WSW,240,9.0,28.0,53,0.00,,,0.11,1.000000,,2013-04-20 05:02:00,
2013-04-19 23:12:00,34.0,19.0,-100.00,WSW,240,9.0,28.0,53,0.00,,,0.11,1.000000,,2013-04-20 05:12:00,
2013-04-19 23:22:00,34.0,19.0,-100.00,WSW,240,9.0,28.0,53,0.00,,,0.11,1.000000,,2013-04-20 05:22:00,
2013-04-19 23:43:00,34.0,19.0,-100.00,WSW,238,8.0,23.0,53,0.00,,,0.11,1.000000,,2013-04-20 05:43:00,
2013-04-19 23:52:00,34.0,19.0,-100.00,WSW,238,8.0,23.0,53,0.00,,,0.11,1.000000,,2013-04-20 05:52:00,